Location: Unspecified
(0.0000°N, 0.0000°E)
Time: 22:28:13
(UTC+00:00)

Hubble Space Telescope - Pass Details

Date: 19 July 2019
Orbit: 536 x 540 km, 28.5° (Epoch: 22 July)

Event Time Altitude Azimuth Distance (km) Brightness Sun altitude
Exits shadow 05:14:29 18° 255° (WSW) 1,351 2.2 -12.1°
Maximum altitude 05:17:23 57° 330° (NNW) 631 1.0 -11.4°
Drops below altitude 10° 05:21:26 10° 49° (NE) 1,776 4.7 -10.5°
Sets 05:23:42 0° 53° (NE) 2,664 6.0 -9.9°
